Retour au catalogue

DMSP 5D-2 F13 DEB

ActifPO
NORAD 42297·DEBRIS·🇺🇸 United States

Lancé Mar 24, 1995 depuis Vandenberg Space Force Base

Loading…

Prochains Passages (prochaines 24 heures)

TLE

FraisSource: Space-Track

Époque: Sep 13, 2026, 06:39 UTC

1 42297U 95015HP  26256.27740981  .00006117  00000-0  16706-2 0  9990
2 42297  98.8593 267.2252 0027752  40.4450 319.8798 14.47438320568587

Suivez DMSP 5D-2 F13 DEB en temps réel avec AllMySat

Download on the App Store